Home   Weather   Puerto Montt   Past weeks

Flag for Chile Past Weather in Puerto Montt, Chile — Yesterday and Last 2 Weeks

63 °F

Partly sunny.

Feels Like: 63 °F
Forecast: N/A
Wind: 9 mph from Southeast

Location: Puerto Montt Airport

Current Time: Oct 23, 2016 at 7:07:58 PM

Latest Report: Oct 23, 2016 at 6:00 PM

Visibility: N/A

Pressure: 30.09 "Hg

Humidity: 64%

Dew Point: 50 °F

Location of Puerto MonttLocation

Past Weather in Puerto Montt — Graph


Puerto Montt Temperature Yesterday

Maximum temperature yesterday: 68 °F (at 4:00 PM)
Minimum temperature yesterday: 45 °F (at 5:00 AM)
Average temperature yesterday: 54 °F

High & Low Weather Summary for the Past Weeks

High70 °F (Oct 23, 1:00 PM)100% (Oct 9, 3:00 AM)30.33 "Hg (Oct 9, 3:00 AM)
Low34 °F (Oct 9, 4:00 AM)40% (Oct 19, 5:00 PM)29.68 "Hg (Oct 12, 7:00 AM)
Average50 °F81%30.02 "Hg
* Reported Oct 8 6:00 PM — Oct 23 6:00 PM, Puerto Montt, Weather by CustomWeather, © 2016

Note: Actual official high and low records may vary slightly from our data, if they occured in-between our weather recording intervals... More about our weather records


Puerto Montt Weather History for the Previous 24 Hours

Scroll right to see more
Time TempWeatherWind HumidityBarometerVisibility
6:00 PM
Sun, Oct 23
63 °FPartly sunny.9 mph64%30.09 "HgN/A
5:00 PM66 °FScattered clouds.10 mph56%30.07 "HgN/A
4:00 PM64 °FMore clouds than sun.9 mph64%30.09 "HgN/A
3:00 PM64 °FOvercast.10 mph64%30.09 "HgN/A
2:00 PM68 °FPartly sunny.6 mph49%30.09 "HgN/A
1:00 PM70 °FScattered clouds.5 mph50%30.07 "HgN/A
12:00 PM64 °FPassing clouds.2 mph60%30.09 "HgN/A
11:00 AM63 °FSunny.3 mph64%30.09 "Hg10 mi
10:00 AM59 °FSunny.3 mph72%30.09 "Hg10 mi
9:00 AM55 °FSunny.3 mph82%30.09 "Hg10 mi
8:00 AM48 °FSunny.No wind94%30.07 "Hg10 mi
7:00 AM45 °FScattered clouds.No wind93%30.07 "HgN/A
6:00 AM50 °FPassing clouds.No wind94%30.04 "HgN/A
5:00 AM52 °FPassing clouds.5 mph88%30.04 "HgN/A
4:00 AM52 °FPassing clouds.5 mph88%30.04 "HgN/A
3:00 AM50 °FPassing clouds.No wind94%30.04 "HgN/A
2:00 AM52 °FOvercast.No wind88%30.04 "HgN/A
1:00 AM52 °FOvercast.3 mph88%30.04 "HgN/A
12:00 AM54 °FOvercast.5 mph88%30.04 "HgN/A
11:00 PM
Sat, Oct 22
54 °FOvercast.5 mph88%30.04 "HgN/A
10:00 PM54 °FOvercast.3 mph88%30.04 "HgN/A
9:00 PM54 °FOvercast.6 mph88%30.01 "HgN/A
8:00 PM55 °FPartly sunny.5 mph82%30.01 "HgN/A
7:00 PM57 °FBroken clouds.8 mph82%29.98 "HgN/A
Weather by CustomWeather, © 2016

See weather overviewHow to use our weather pages